Content
SEND FEEDBACK

Daily
Averages
Monthly
Summary
United States of America

BOSTON, MASSACHUSETTS


Home > North America > United States > Massachusetts
Elevation: 1 meter     Latitude: 42 22N     Longitude: 071 02W

WEATHER
 
SELECT A DAY
Number of Records: 202,449;   Date Range: 1/1/95 - 7/20/14
 
SHARE

PRINT THIS DATA

[ ← Previous Day ]
WEATHER ALMANAC - 24 APRIL, 2013
[ Next Day → ]
[ °F ]   °C
Weather ElementAverageHighLow
Temperature10.6 °C20.6 °C (5:54 pm)6 °C (1:29 am)
Dewpoint6.4 °C8.9 °C (12:54 pm)4 °C (1:29 am)
Humidity77.8 %93 % (1:54 am)42 % (5:54 pm)
Barometer1013.2 hPa1017.3 hPa (1:29 am)1009.1 hPa (5:54 pm)
Wind Speed23 km/h33.3 km/h (6:54 pm)
Wind Gust46.3 km/h (2:54 am)
Weather ElementAverage
Visibility13.5 km
Wind DirectionSW (221.4 °)

Weather ElementTotal
Precipitation---
Heating Degree Days5.1 (Base 18.3)
Growing Degree Days3.3 (Base 10)
Averaged from 29 records on 24 April, 2013
WEATHER CONDITIONS BREAKOUT
WIND DIRECTION BREAKOUT
WEATHER BY HOUR - 24 APRIL, 2013
[ °F ]   °C
Local TimeTemperatureDewpointHumidityBarometerVisibilityWind DirectionWind SpeedGust SpeedPrecipitationEventsConditions
1:29 AM6 °C4 °C87 %1017.3 hPa3.2 kmNNE (20°)31.5 km/h42.6 km/h0 mmOvercast
1:54 AM6.1 °C5 °C93 %1016.6 hPa3.2 kmNNE (20°)27.8 km/h37 km/h0 mmOvercast
2:06 AM6 °C4 °C87 %1016.3 hPa6.4 kmNNE (20°)25.9 km/h40.7 km/hOvercast
2:54 AM6.1 °C5 °C93 %1015.6 hPa9.7 kmNorth (10°)29.6 km/h46.3 km/hOvercast
3:54 AM6.1 °C5 °C93 %1015.2 hPa16.1 kmNorth (350°)25.9 km/h38.9 km/hOvercast
4:54 AM6.1 °C5 °C93 %1014.9 hPa9.7 kmNNW (340°)22.2 km/h35.2 km/hOvercast
5:54 AM6.1 °C5 °C93 %1014.6 hPa9.7 kmNNW (340°)16.7 km/hOvercast
6:54 AM6.7 °C5 °C89 %1014.6 hPa11.3 kmNNW (330°)25.9 km/hOvercast
7:38 AM7 °C6 °C93 %1014.2 hPa4 kmNW (320°)20.4 km/h40.7 km/hOvercast
7:50 AM7 °C6 °C93 %1014.2 hPa12.9 kmNNW (330°)25.9 km/h38.9 km/h0 mmOvercast
7:54 AM6.7 °C5.6 °C93 %1014.2 hPa16.1 kmNW (320°)25.9 km/h38.9 km/h0 mmOvercast
8:15 AM7 °C6 °C93 %1014.2 hPa16.1 kmNNW (330°)18.5 km/hOvercast
8:54 AM8.3 °C5.6 °C83 %1014.6 hPa16.1 kmNNW (330°)18.5 km/hOvercast
9:19 AM9 °C6 °C82 %1014.6 hPa16.1 kmNW (310°)14.8 km/hOvercast
9:54 AM10 °C6.1 °C77 %1014.2 hPa16.1 kmNNW (330°)16.7 km/hOvercast
10:54 AM12.8 °C7.2 °C69 %1013.5 hPa16.1 kmNNW (330°)18.5 km/h31.5 km/hMostly Cloudy
11:54 AM14.4 °C8.3 °C67 %1012.9 hPa16.1 kmNorth (350°)11.1 km/hMostly Cloudy
12:54 PM14.4 °C8.9 °C70 %1012.5 hPa16.1 kmSE (140°)16.7 km/hScattered Clouds
1:54 PM15 °C8.9 °C67 %1011.5 hPa16.1 kmSE (130°)18.5 km/hScattered Clouds
2:54 PM16.1 °C8.9 °C62 %1010.5 hPa16.1 kmESE (120°)20.4 km/hScattered Clouds
3:54 PM13.9 °C8.3 °C69 %1010.2 hPa16.1 kmESE (110°)31.5 km/hPartly Cloudy
4:54 PM15.6 °C8.9 °C64 %1009.8 hPa16.1 kmESE (110°)14.8 km/hMostly Cloudy
5:54 PM20.6 °C7.2 °C42 %1009.1 hPa16.1 kmSSW (200°)25.9 km/hScattered Clouds
6:54 PM18.3 °C6.1 °C45 %1009.5 hPa16.1 kmSSW (200°)33.3 km/hPartly Cloudy
7:54 PM14.4 °C7.2 °C62 %1010.2 hPa16.1 kmSouth (190°)22.2 km/hPartly Cloudy
8:54 PM13.9 °C6.7 °C62 %1011.2 hPa16.1 kmSW (220°)24.1 km/h38.9 km/hPartly Cloudy
9:54 PM12.2 °C7.2 °C72 %1011.9 hPa16.1 kmSSW (210°)24.1 km/hPartly Cloudy
10:54 PM10.6 °C7.2 °C80 %1011.5 hPa16.1 kmSSW (210°)27.8 km/h40.7 km/hPartly Cloudy
11:54 PM10 °C7.2 °C83 %1011.2 hPa16.1 kmSSW (200°)29.6 km/hMostly Cloudy
Hourly data recorded from KBOS, located 0 kilometers away from Boston, Massachusetts







STORIES FROM OUR PARTNERS